Starlink 6320

operational
NORAD ID: 57336 Int'l Des: 2023-099 Owner: SPXS Country: US Constellation: starlink
LEOCIRCULAR

About Starlink 6320

Description loading...

Live Position

Loading 3D Globe...

Upcoming Passes

Altitude History

Altitude vs Time

uPlot chart will show altitude changes over time

Two-Line Element Set

1 57336U 23099J 25258.00712986 .00001629 00000-0 13561-3 0 9999
2 57336 43.0029 123.2006 0001117 274.3105 85.7609 15.02548625119699
Epoch: Sep 15, 2025 • Age: 23 hours

Current Status

Altitude 558.5 km
Velocity 7.58 km/s
Sub-Earth Point 13.72°N, 60.5°W
Launch Date Jul 16, 2023
Age 2.1 years
Type internet

Technical Details

Classification Payload
Mass 305.00 kg
Dry Mass 290.00 kg
Total Mass 305.00 kg
Length 0.20 m
Diameter 2.80 m
Span 9.00 m
Shape Box + pan
Manufacturer SPXS
Bus Type Starlink
Phase Status In Orbit
Owner/State SPXS/US

Large Constellations

Loading constellations...